| time (UTC) | temp F | wind direction | speed MPH | gust MPH | rain 1hr in | rain 24hr in | rain mn in | humidity % | barometer mb |
| 20260507094523 | 43 | 340 | 0.0 | 4.0 | 0.00 | 0.00 | 0.00 | 71 | 1018.4 |
| 20260507094010 | 43 | 335 | 1.0 | 4.0 | 0.00 | 0.00 | 0.00 | 70 | 1018.4 |
| 20260507093508 | 43 | 328 | 2.0 | 4.0 | 0.00 | 0.00 | 0.00 | 70 | 1018.5 |
| 20260507093026 | 43 | 325 | 2.0 | 4.0 | 0.00 | 0.00 | 0.00 | 70 | 1018.4 |
| 20260507092509 | 43 | 346 | 2.0 | 6.0 | 0.00 | 0.00 | 0.00 | 71 | 1018.2 |
| 20260507092003 | 43 | 348 | 3.0 | 6.0 | 0.00 | 0.00 | 0.00 | 71 | 1018.2 |
| 20260507091513 | 43 | 329 | 2.0 | 3.0 | 0.00 | 0.00 | 0.00 | 71 | 1018.2 |
| 20260507091003 | 43 | 360 | 1.0 | 4.0 | 0.00 | 0.00 | 0.00 | 72 | 1018.1 |
| 20260507090502 | 43 | 346 | 2.0 | 4.0 | 0.00 | 0.00 | 0.00 | 71 | 1018.2 |
| 20260507090017 | 43 | 309 | 2.0 | 4.0 | 0.00 | 0.00 | 0.00 | 71 | 1018.3 |
| 20260507085506 | 43 | 312 | 1.0 | 4.0 | 0.00 | 0.00 | 0.00 | 72 | 1018.1 |
| 20260507085007 | 43 | 350 | 1.0 | 4.0 | 0.00 | 0.00 | 0.00 | 73 | 1018.0 |
| 20260507084520 | 43 | 342 | 1.0 | 3.0 | 0.00 | 0.00 | 0.00 | 74 | 1017.9 |
| 20260507084008 | 43 | 346 | 1.0 | 3.0 | 0.00 | 0.00 | 0.00 | 73 | 1017.9 |
| 20260507083508 | 43 | 5 | 1.0 | 4.0 | 0.00 | 0.00 | 0.00 | 74 | 1018.0 |
| 20260507083024 | 43 | 350 | 1.0 | 5.0 | 0.00 | 0.00 | 0.00 | 73 | 1017.9 |
| 20260507082507 | 43 | 333 | 2.0 | 5.0 | 0.00 | 0.00 | 0.00 | 74 | 1018.0 |
| 20260507082012 | 43 | 347 | 3.0 | 5.0 | 0.00 | 0.00 | 0.00 | 75 | 1018.0 |
| 20260507081536 | 43 | 340 | 1.0 | 3.0 | 0.00 | 0.00 | 0.00 | 75 | 1018.0 |
| 20260507081011 | 43 | 316 | 2.0 | 3.0 | 0.00 | 0.00 | 0.00 | 75 | 1018.1 |
| 20260507080502 | 43 | 331 | 1.0 | 5.0 | 0.00 | 0.00 | 0.00 | 75 | 1018.0 |
| 20260507080013 | 44 | 33 | 2.0 | 5.0 | 0.00 | 0.00 | 0.00 | 74 | 1018.1 |
| 20260507075503 | 44 | 327 | 2.0 | 6.0 | 0.00 | 0.00 | 0.00 | 74 | 1018.3 |
| 20260507075006 | 44 | 331 | 3.0 | 6.0 | 0.00 | 0.00 | 0.00 | 76 | 1018.4 |
| 20260507074519 | 44 | 336 | 2.0 | 6.0 | 0.00 | 0.00 | 0.00 | 76 | 1018.3 |
| 20260507074004 | 44 | 336 | 2.0 | 4.0 | 0.00 | 0.00 | 0.00 | 76 | 1018.3 |
| 20260507073506 | 44 | 329 | 2.0 | 8.0 | 0.00 | 0.00 | 0.00 | 76 | 1018.3 |
| 20260507073020 | 44 | 331 | 3.0 | 8.0 | 0.00 | 0.00 | 0.00 | 76 | 1018.3 |
| 20260507072510 | 44 | 346 | 2.0 | 6.0 | 0.00 | 0.00 | 0.00 | 77 | 1018.3 |
| 20260507072010 | 44 | 324 | 2.0 | 4.0 | 0.00 | 0.00 | 0.00 | 78 | 1018.4 |
| 20260507071525 | 44 | 340 | 2.0 | 4.0 | 0.00 | 0.00 | 0.00 | 78 | 1018.4 |
| 20260507071006 | 44 | 309 | 2.0 | 4.0 | 0.00 | 0.00 | 0.00 | 79 | 1018.4 |
| 20260507070512 | 44 | 309 | 2.0 | 4.0 | 0.00 | 0.01 | 0.00 | 79 | 1018.4 |
| 20260507070040 | 44 | 335 | 1.0 | 3.0 | 0.00 | 0.01 | 0.00 | 79 | 1018.4 |
| 20260507065510 | 44 | 352 | 1.0 | 5.0 | 0.00 | 0.01 | 0.00 | 79 | 1018.3 |
| 20260507065003 | 44 | 334 | 1.0 | 6.0 | 0.00 | 0.02 | 0.00 | 79 | 1018.3 |
| 20260507064517 | 44 | 332 | 3.0 | 6.0 | 0.00 | 0.02 | 0.00 | 80 | 1018.4 |
| 20260507064003 | 44 | 327 | 3.0 | 4.0 | 0.00 | 0.02 | 0.00 | 81 | 1018.4 |
| 20260507063507 | 44 | 313 | 2.0 | 4.0 | 0.00 | 0.02 | 0.00 | 82 | 1018.4 |
| 20260507063021 | 43 | 304 | 2.0 | 5.0 | 0.00 | 0.02 | 0.00 | 83 | 1018.5 |
| 20260507062510 | 43 | 299 | 2.0 | 5.0 | 0.00 | 0.02 | 0.00 | 84 | 1018.5 |
| 20260507062006 | 43 | 294 | 1.0 | 3.0 | 0.00 | 0.02 | 0.00 | 86 | 1018.3 |
| 20260507061527 | 43 | 334 | 1.0 | 3.0 | 0.00 | 0.02 | 0.00 | 86 | 1018.3 |
| 20260507061003 | 43 | 346 | 1.0 | 2.0 | 0.00 | 0.02 | 0.00 | 87 | 1018.4 |
| 20260507060503 | 43 | 337 | 1.0 | 2.0 | 0.00 | 0.02 | 0.00 | 87 | 1018.5 |
| 20260507060013 | 43 | 19 | 1.0 | 2.0 | 0.00 | 0.02 | 0.00 | 87 | 1018.4 |
| 20260507055503 | 44 | 352 | 0.0 | 2.0 | 0.00 | 0.02 | 0.00 | 87 | 1018.3 |
| 20260507055003 | 43 | 330 | 1.0 | 3.0 | 0.00 | 0.02 | 0.00 | 88 | 1018.4 |
| 20260507054514 | 43 | 336 | 1.0 | 3.0 | 0.00 | 0.02 | 0.00 | 88 | 1018.5 |
| 20260507054004 | 43 | 327 | 0.0 | 3.0 | 0.00 | 0.02 | 0.00 | 89 | 1018.4 |
| 20260507053504 | 44 | 17 | 0.0 | 2.0 | 0.00 | 0.02 | 0.00 | 89 | 1018.3 |
| 20260507053018 | 44 | 17 | 0.0 | 2.0 | 0.00 | 0.02 | 0.00 | 90 | 1018.1 |
| 20260507052506 | 44 | 17 | 0.0 | 2.0 | 0.00 | 0.02 | 0.00 | 90 | 1018.1 |
| 20260507052003 | 44 | 21 | 1.0 | 2.0 | 0.00 | 0.02 | 0.00 | 89 | 1018.1 |
| 20260507051503 | 43 | 21 | 1.0 | 2.0 | 0.00 | 0.02 | 0.00 | 90 | 1018.1 |
| 20260507051008 | 43 | 306 | 0.0 | 2.0 | 0.00 | 0.02 | 0.00 | 90 | 1018.0 |
| 20260507050503 | 43 | 306 | 0.0 | 2.0 | 0.00 | 0.02 | 0.00 | 89 | 1017.9 |
| 20260507050029 | 43 | 5 | 0.0 | 2.0 | 0.00 | 0.02 | 0.00 | 89 | 1018.0 |
| 20260507045503 | 43 | 5 | 0.0 | 2.0 | 0.00 | 0.02 | 0.02 | 89 | 1017.9 |
| 20260507045003 | 43 | 5 | 0.0 | 2.0 | 0.00 | 0.02 | 0.02 | 89 | 1017.9 |
| 20260507044511 | 43 | 5 | 0.0 | 0.0 | 0.00 | 0.02 | 0.02 | 89 | 1017.8 |
| 20260507044003 | 43 | 5 | 0.0 | 0.0 | 0.00 | 0.02 | 0.02 | 89 | 1017.7 |
| 20260507043504 | 43 | 5 | 0.0 | 2.0 | 0.00 | 0.02 | 0.02 | 89 | 1017.7 |
| 20260507043017 | 43 | 5 | 0.0 | 2.0 | 0.00 | 0.02 | 0.02 | 89 | 1017.8 |
| 20260507042505 | 43 | 5 | 0.0 | 2.0 | 0.00 | 0.02 | 0.02 | 89 | 1017.8 |
| 20260507042014 | 43 | 5 | 0.0 | 2.0 | 0.00 | 0.02 | 0.02 | 89 | 1017.6 |
| 20260507041522 | 43 | 5 | 0.0 | 2.0 | 0.00 | 0.02 | 0.02 | 89 | 1017.8 |
| 20260507041008 | 44 | 5 | 0.0 | 2.0 | 0.00 | 0.02 | 0.02 | 89 | 1017.8 |
| 20260507040509 | 43 | 5 | 0.0 | 2.0 | 0.00 | 0.02 | 0.02 | 89 | 1017.7 |
| 20260507040023 | 44 | 5 | 0.0 | 2.0 | 0.00 | 0.02 | 0.02 | 89 | 1017.5 |
| 20260507035504 | 44 | 5 | 0.0 | 2.0 | 0.00 | 0.02 | 0.02 | 88 | 1017.6 |
| 20260507035008 | 44 | 5 | 0.0 | 2.0 | 0.00 | 0.02 | 0.02 | 88 | 1017.5 |
| 20260507034510 | 44 | 5 | 0.0 | 2.0 | 0.00 | 0.02 | 0.02 | 88 | 1017.5 |
| 20260507034003 | 44 | 5 | 0.0 | 2.0 | 0.00 | 0.02 | 0.02 | 88 | 1017.6 |
| 20260507033503 | 44 | 5 | 0.0 | 0.0 | 0.00 | 0.02 | 0.02 | 87 | 1017.6 |
| 20260507033013 | 44 | 5 | 0.0 | 2.0 | 0.00 | 0.02 | 0.02 | 87 | 1017.6 |
| 20260507032508 | 45 | 5 | 0.0 | 2.0 | 0.00 | 0.02 | 0.02 | 87 | 1017.5 |
| 20260507032006 | 45 | 5 | 0.0 | 2.0 | 0.00 | 0.02 | 0.02 | 87 | 1017.4 |
| 20260507031521 | 45 | 5 | 0.0 | 2.0 | 0.00 | 0.02 | 0.02 | 87 | 1017.5 |
| 20260507031009 | 45 | 5 | 0.0 | 0.0 | 0.00 | 0.02 | 0.02 | 87 | 1017.4 |
| 20260507030507 | 45 | 5 | 0.0 | 0.0 | 0.00 | 0.02 | 0.02 | 87 | 1017.4 |
| 20260507030022 | 45 | 5 | 0.0 | 0.0 | 0.00 | 0.02 | 0.02 | 87 | 1017.4 |
| 20260507025507 | 46 | 5 | 0.0 | 0.0 | 0.00 | 0.02 | 0.02 | 86 | 1017.3 |
| 20260507025008 | 46 | 5 | 0.0 | 2.0 | 0.00 | 0.02 | 0.02 | 86 | 1017.3 |
| 20260507024508 | 46 | 5 | 0.0 | 2.0 | 0.00 | 0.02 | 0.02 | 86 | 1017.2 |
| 20260507024007 | 46 | 5 | 0.0 | 1.0 | 0.00 | 0.02 | 0.02 | 86 | 1017.2 |
| 20260507023509 | 46 | 5 | 0.0 | 2.0 | 0.00 | 0.02 | 0.02 | 85 | 1017.1 |
| 20260507023026 | 46 | 5 | 0.0 | 2.0 | 0.00 | 0.02 | 0.02 | 85 | 1017.0 |
| 20260507022503 | 46 | 5 | 0.0 | 1.0 | 0.00 | 0.02 | 0.02 | 85 | 1017.1 |
| 20260507022005 | 47 | 5 | 0.0 | 1.0 | 0.00 | 0.02 | 0.02 | 84 | 1017.2 |
| 20260507021514 | 47 | 5 | 0.0 | 2.0 | 0.00 | 0.02 | 0.02 | 84 | 1017.0 |
| 20260507021006 | 47 | 5 | 0.0 | 2.0 | 0.00 | 0.02 | 0.02 | 84 | 1017.0 |
| 20260507020504 | 48 | 5 | 0.0 | 2.0 | 0.00 | 0.02 | 0.02 | 83 | 1017.0 |
| 20260507020022 | 48 | 5 | 0.0 | 2.0 | 0.00 | 0.02 | 0.02 | 82 | 1016.9 |
| 20260507015506 | 49 | 5 | 1.0 | 2.0 | 0.00 | 0.02 | 0.02 | 81 | 1017.0 |
| 20260507015006 | 49 | 5 | 0.0 | 2.0 | 0.00 | 0.02 | 0.02 | 81 | 1016.9 |
| 20260507014527 | 50 | 5 | 0.0 | 0.0 | 0.00 | 0.02 | 0.02 | 81 | 1016.9 |
| 20260507014007 | 50 | 5 | 0.0 | 2.0 | 0.00 | 0.02 | 0.02 | 81 | 1016.8 |
| 20260507013508 | 50 | 5 | 0.0 | 2.0 | 0.00 | 0.02 | 0.02 | 80 | 1016.8 |
| 20260507013033 | 51 | 5 | 0.0 | 2.0 | 0.00 | 0.02 | 0.02 | 79 | 1016.7 |
| 20260507012503 | 51 | 5 | 0.0 | 2.0 | 0.00 | 0.02 | 0.02 | 79 | 1016.6 |
| 20260507012004 | 52 | 5 | 0.0 | 2.0 | 0.00 | 0.02 | 0.02 | 77 | 1016.6 |
| 20260507011523 | 52 | 5 | 0.0 | 0.0 | 0.00 | 0.02 | 0.02 | 76 | 1016.7 |
| 20260507011005 | 52 | 5 | 0.0 | 0.0 | 0.00 | 0.02 | 0.02 | 76 | 1016.7 |
| 20260507010507 | 52 | 5 | 0.0 | 1.0 | 0.00 | 0.02 | 0.02 | 73 | 1016.7 |
| 20260507010014 | 52 | 5 | 0.0 | 2.0 | 0.00 | 0.02 | 0.02 | 73 | 1016.7 |
| 20260507005508 | 52 | 17 | 0.0 | 2.0 | 0.00 | 0.02 | 0.02 | 73 | 1016.6 |
| 20260507005010 | 52 | 17 | 0.0 | 1.0 | 0.00 | 0.02 | 0.02 | 73 | 1016.5 |
| 20260507004520 | 52 | 17 | 1.0 | 2.0 | 0.00 | 0.02 | 0.02 | 73 | 1016.5 |
| 20260507004007 | 53 | 17 | 0.0 | 2.0 | 0.00 | 0.02 | 0.02 | 71 | 1016.6 |
| 20260507003509 | 53 | 17 | 1.0 | 2.0 | 0.00 | 0.02 | 0.02 | 71 | 1016.5 |
| 20260507003026 | 53 | 9 | 2.0 | 3.0 | 0.00 | 0.02 | 0.02 | 71 | 1016.5 |
| 20260507002509 | 53 | 24 | 0.0 | 4.0 | 0.00 | 0.02 | 0.02 | 70 | 1016.9 |
| 20260507002011 | 53 | 32 | 2.0 | 4.0 | 0.00 | 0.02 | 0.02 | 69 | 1016.4 |
| 20260507001511 | 53 | 16 | 1.0 | 3.0 | 0.00 | 0.02 | 0.02 | 69 | 1016.6 |
| 20260507001004 | 53 | 5 | 1.0 | 3.0 | 0.00 | 0.02 | 0.02 | 70 | 1016.4 |
| 20260507000504 | 53 | 345 | 2.0 | 5.0 | 0.00 | 0.02 | 0.02 | 68 | 1016.8 |
| 20260507000012 | 53 | 20 | 2.0 | 5.0 | 0.00 | 0.02 | 0.02 | 68 | 1016.6 |
| 20260506235507 | 53 | 50 | 3.0 | 6.0 | 0.00 | 0.02 | 0.02 | 67 | 1016.5 |
| 20260506235006 | 53 | 28 | 4.0 | 8.0 | 0.00 | 0.02 | 0.02 | 67 | 1016.5 |
| 20260506234516 | 54 | 5 | 4.0 | 9.0 | 0.00 | 0.02 | 0.02 | 65 | 1016.5 |
| 20260506234006 | 54 | 12 | 2.0 | 9.0 | 0.00 | 0.02 | 0.02 | 66 | 1016.4 |
| 20260506233510 | 54 | 19 | 4.0 | 10.0 | 0.00 | 0.02 | 0.02 | 66 | 1016.2 |
| 20260506233024 | 54 | 20 | 2.0 | 10.0 | 0.00 | 0.02 | 0.02 | 66 | 1016.3 |
| 20260506232508 | 54 | 322 | 4.0 | 8.0 | 0.00 | 0.02 | 0.02 | 67 | 1016.0 |
| 20260506232006 | 53 | 17 | 3.0 | 8.0 | 0.00 | 0.02 | 0.02 | 66 | 1016.1 |
| 20260506231525 | 53 | 30 | 3.0 | 8.0 | 0.00 | 0.02 | 0.02 | 66 | 1016.4 |
| 20260506231007 | 53 | 19 | 4.0 | 12.0 | 0.00 | 0.02 | 0.02 | 66 | 1016.2 |
| 20260506230509 | 53 | 9 | 4.0 | 12.0 | 0.00 | 0.02 | 0.02 | 67 | 1016.0 |
| 20260506230014 | 53 | 24 | 4.0 | 13.0 | 0.00 | 0.02 | 0.02 | 67 | 1015.8 |
| 20260506225505 | 53 | 19 | 8.0 | 13.0 | 0.00 | 0.02 | 0.02 | 67 | 1015.9 |
| 20260506225018 | 53 | 44 | 4.0 | 11.0 | 0.00 | 0.02 | 0.02 | 68 | 1015.6 |
| 20260506224517 | 53 | 9 | 7.0 | 12.0 | 0.00 | 0.02 | 0.02 | 68 | 1015.2 |
| 20260506224006 | 53 | 24 | 6.0 | 12.0 | 0.00 | 0.02 | 0.02 | 68 | 1015.2 |
| 20260506223506 | 53 | 16 | 4.0 | 13.0 | 0.00 | 0.02 | 0.02 | 70 | 1015.3 |
| 20260506223020 | 52 | 36 | 6.0 | 13.0 | 0.00 | 0.02 | 0.02 | 71 | 1015.0 |
| 20260506222509 | 52 | 17 | 3.0 | 8.0 | 0.00 | 0.02 | 0.02 | 72 | 1015.0 |
| 20260506222013 | 52 | 20 | 3.0 | 8.0 | 0.00 | 0.02 | 0.02 | 72 | 1015.0 |
| 20260506221525 | 53 | 5 | 3.0 | 9.0 | 0.00 | 0.02 | 0.02 | 71 | 1015.2 |
| 20260506221011 | 53 | 336 | 5.0 | 10.0 | 0.00 | 0.02 | 0.02 | 69 | 1015.2 |
| 20260506220509 | 53 | 344 | 5.0 | 11.0 | 0.00 | 0.02 | 0.02 | 69 | 1015.1 |
| 20260506220028 | 53 | 17 | 6.0 | 11.0 | 0.00 | 0.02 | 0.02 | 68 | 1015.0 |
| 20260506215510 | 53 | 331 | 5.0 | 11.0 | 0.00 | 0.02 | 0.02 | 68 | 1015.2 |
| 20260506215004 | 53 | 360 | 3.0 | 12.0 | 0.00 | 0.02 | 0.02 | 68 | 1015.5 |
| 20260506214513 | 54 | 18 | 5.0 | 12.0 | 0.00 | 0.02 | 0.02 | 67 | 1015.5 |
| 20260506214004 | 54 | 341 | 5.0 | 10.0 | 0.00 | 0.02 | 0.02 | 65 | 1015.5 |
| 20260506213506 | 54 | 305 | 6.0 | 14.0 | 0.00 | 0.02 | 0.02 | 67 | 1015.5 |
| 20260506213018 | 54 | 343 | 4.0 | 14.0 | 0.00 | 0.02 | 0.02 | 67 | 1015.3 |
| 20260506212507 | 54 | 352 | 6.0 | 13.0 | 0.00 | 0.02 | 0.02 | 64 | 1015.4 |
| 20260506212010 | 55 | 346 | 7.0 | 13.0 | 0.00 | 0.02 | 0.02 | 64 | 1015.4 |
| 20260506211525 | 55 | 30 | 8.0 | 15.0 | 0.00 | 0.02 | 0.02 | 65 | 1015.5 |
| 20260506211008 | 55 | 67 | 5.0 | 15.0 | 0.00 | 0.02 | 0.02 | 65 | 1015.5 |
| 20260506210512 | 55 | 59 | 9.0 | 15.0 | 0.00 | 0.02 | 0.02 | 63 | 1015.5 |
| 20260506210031 | 55 | 317 | 5.0 | 13.0 | 0.00 | 0.02 | 0.02 | 62 | 1015.6 |
| 20260506205511 | 54 | 26 | 6.0 | 12.0 | 0.00 | 0.02 | 0.02 | 64 | 1015.6 |
| 20260506205009 | 54 | 16 | 4.0 | 13.0 | 0.00 | 0.02 | 0.02 | 67 | 1015.6 |
| 20260506204504 | 54 | 15 | 4.0 | 13.0 | 0.00 | 0.02 | 0.02 | 66 | 1015.8 |
| 20260506204004 | 54 | 57 | 6.0 | 12.0 | 0.00 | 0.02 | 0.02 | 67 | 1015.8 |
| 20260506203503 | 54 | 352 | 7.0 | 11.0 | 0.00 | 0.02 | 0.02 | 68 | 1016.0 |
| 20260506203005 | 53 | 23 | 4.0 | 10.0 | 0.00 | 0.02 | 0.02 | 67 | 1016.1 |
| 20260506202503 | 53 | 352 | 4.0 | 10.0 | 0.00 | 0.02 | 0.02 | 69 | 1016.3 |
| 20260506202003 | 53 | 347 | 3.0 | 12.0 | 0.00 | 0.02 | 0.02 | 71 | 1016.6 |
| 20260506201504 | 53 | 335 | 6.0 | 12.0 | 0.00 | 0.02 | 0.02 | 68 | 1016.4 |
| 20260506201003 | 52 | 22 | 4.0 | 9.0 | 0.00 | 0.02 | 0.02 | 70 | 1016.4 |
| 20260506200503 | 52 | 53 | 3.0 | 9.0 | 0.00 | 0.02 | 0.02 | 72 | 1016.6 |
| 20260506200004 | 52 | 334 | 3.0 | 5.0 | 0.00 | 0.02 | 0.02 | 74 | 1016.8 |
| 20260506195502 | 51 | 32 | 2.0 | 4.0 | 0.00 | 0.02 | 0.02 | 75 | 1016.8 |
| 20260506195002 | 51 | 9 | 2.0 | 7.0 | 0.00 | 0.02 | 0.02 | 74 | 1016.7 |
| 20260506194506 | 51 | 5 | 3.0 | 7.0 | 0.00 | 0.02 | 0.02 | 73 | 1016.8 |
| 20260506194003 | 51 | 9 | 3.0 | 6.0 | 0.00 | 0.02 | 0.02 | 75 | 1017.2 |
| 20260506193503 | 51 | 138 | 1.0 | 5.0 | 0.00 | 0.02 | 0.02 | 76 | 1017.2 |
| 20260506193003 | 51 | 287 | 2.0 | 9.0 | 0.00 | 0.02 | 0.02 | 75 | 1017.2 |
| 20260506192503 | 51 | 334 | 4.0 | 10.0 | 0.00 | 0.02 | 0.02 | 73 | 1017.2 |
| 20260506192006 | 51 | 351 | 4.0 | 10.0 | 0.00 | 0.02 | 0.02 | 75 | 1017.2 |
| 20260506191504 | 51 | 331 | 5.0 | 10.0 | 0.00 | 0.02 | 0.02 | 75 | 1017.2 |
| 20260506191002 | 51 | 352 | 4.0 | 9.0 | 0.00 | 0.02 | 0.02 | 76 | 1017.3 |
| 20260506190503 | 51 | 348 | 3.0 | 9.0 | 0.00 | 0.02 | 0.02 | 76 | 1017.1 |
| 20260506190004 | 51 | 11 | 4.0 | 11.0 | 0.00 | 0.02 | 0.02 | 73 | 1017.1 |
| 20260506185502 | 51 | 352 | 4.0 | 11.0 | 0.00 | 0.02 | 0.02 | 75 | 1017.3 |
| 20260506185002 | 51 | 328 | 6.0 | 11.0 | 0.00 | 0.02 | 0.02 | 75 | 1017.3 |
| 20260506184506 | 51 | 331 | 7.0 | 11.0 | 0.00 | 0.02 | 0.02 | 73 | 1017.1 |
| 20260506184004 | 51 | 9 | 3.0 | 12.0 | 0.00 | 0.02 | 0.02 | 76 | 1016.8 |
| 20260506183505 | 51 | 31 | 8.0 | 14.0 | 0.00 | 0.02 | 0.02 | 73 | 1016.7 |
| 20260506183008 | 52 | 18 | 7.0 | 14.0 | 0.00 | 0.02 | 0.02 | 73 | 1016.9 |
| 20260506182503 | 51 | 15 | 4.0 | 12.0 | 0.00 | 0.02 | 0.02 | 75 | 1017.0 |
| 20260506182004 | 51 | 42 | 7.0 | 12.0 | 0.00 | 0.02 | 0.02 | 75 | 1017.1 |
| 20260506181507 | 51 | 16 | 5.0 | 13.0 | 0.00 | 0.02 | 0.02 | 77 | 1017.2 |
| 20260506181004 | 50 | 36 | 5.0 | 13.0 | 0.00 | 0.02 | 0.02 | 74 | 1017.4 |
| 20260506180504 | 51 | 344 | 4.0 | 13.0 | 0.00 | 0.02 | 0.02 | 74 | 1017.3 |
| 20260506180012 | 51 | 360 | 6.0 | 13.0 | 0.00 | 0.02 | 0.02 | 77 | 1017.4 |
| 20260506175501 | 50 | 39 | 4.0 | 11.0 | 0.00 | 0.02 | 0.02 | 75 | 1017.3 |
| 20260506175002 | 50 | 351 | 7.0 | 11.0 | 0.00 | 0.02 | 0.02 | 76 | 1017.5 |
| 20260506174504 | 50 | 352 | 5.0 | 10.0 | 0.00 | 0.02 | 0.02 | 78 | 1017.6 |
| 20260506174003 | 50 | 62 | 2.0 | 10.0 | 0.00 | 0.02 | 0.02 | 78 | 1017.7 |
| 20260506173504 | 50 | 342 | 6.0 | 11.0 | 0.00 | 0.02 | 0.02 | 76 | 1017.6 |
| 20260506173017 | 49 | 24 | 4.0 | 11.0 | 0.00 | 0.02 | 0.02 | 78 | 1017.7 |
| 20260506172503 | 49 | 352 | 4.0 | 7.0 | 0.00 | 0.02 | 0.02 | 78 | 1017.4 |
| 20260506172006 | 49 | 11 | 3.0 | 9.0 | 0.00 | 0.02 | 0.02 | 78 | 1017.6 |
| 20260506171514 | 49 | 49 | 3.0 | 11.0 | 0.00 | 0.02 | 0.02 | 77 | 1017.4 |
| 20260506171004 | 49 | 67 | 5.0 | 11.0 | 0.00 | 0.02 | 0.02 | 78 | 1017.2 |
| 20260506170503 | 49 | 17 | 6.0 | 11.0 | 0.00 | 0.02 | 0.02 | 78 | 1017.1 |
| 20260506170009 | 48 | 21 | 4.0 | 12.0 | 0.00 | 0.02 | 0.02 | 80 | 1017.3 |
| 20260506165503 | 48 | 40 | 6.0 | 12.0 | 0.00 | 0.02 | 0.02 | 80 | 1017.4 |
| 20260506165003 | 48 | 13 | 7.0 | 12.0 | 0.00 | 0.02 | 0.02 | 79 | 1017.3 |
| 20260506164508 | 48 | 34 | 3.0 | 11.0 | 0.00 | 0.02 | 0.02 | 80 | 1017.6 |
| 20260506164002 | 48 | 24 | 7.0 | 12.0 | 0.00 | 0.02 | 0.02 | 81 | 1017.4 |
| 20260506163503 | 48 | 71 | 8.0 | 13.0 | 0.00 | 0.02 | 0.02 | 79 | 1017.2 |
| 20260506163008 | 48 | 24 | 6.0 | 13.0 | 0.00 | 0.02 | 0.02 | 80 | 1017.4 |
| 20260506162503 | 48 | 352 | 6.0 | 12.0 | 0.00 | 0.02 | 0.02 | 82 | 1017.0 |
| 20260506162006 | 48 | 36 | 9.0 | 12.0 | 0.00 | 0.02 | 0.02 | 82 | 1016.9 |
| 20260506161511 | 47 | 10 | 7.0 | 16.0 | 0.00 | 0.02 | 0.02 | 83 | 1016.7 |
| 20260506161005 | 47 | 44 | 11.0 | 16.0 | 0.00 | 0.02 | 0.02 | 80 | 1016.9 |
| 20260506160505 | 47 | 38 | 5.0 | 15.0 | 0.00 | 0.02 | 0.02 | 82 | 1017.1 |
| 20260506160012 | 47 | 48 | 6.0 | 13.0 | 0.00 | 0.02 | 0.02 | 83 | 1017.2 |
| 20260506155504 | 47 | 352 | 6.0 | 13.0 | 0.00 | 0.02 | 0.02 | 83 | 1017.4 |
| 20260506155006 | 47 | 53 | 5.0 | 14.0 | 0.00 | 0.02 | 0.02 | 85 | 1017.2 |
| 20260506154512 | 46 | 29 | 7.0 | 14.0 | 0.00 | 0.02 | 0.02 | 84 | 1017.0 |
| 20260506154006 | 46 | 42 | 7.0 | 14.0 | 0.00 | 0.02 | 0.02 | 84 | 1017.1 |
| 20260506153507 | 46 | 14 | 9.0 | 14.0 | 0.00 | 0.02 | 0.02 | 84 | 1016.9 |
| 20260506153013 | 46 | 42 | 9.0 | 12.0 | 0.00 | 0.02 | 0.02 | 84 | 1016.7 |
| 20260506152504 | 46 | 40 | 6.0 | 12.0 | 0.00 | 0.02 | 0.02 | 84 | 1017.1 |
| 20260506152003 | 46 | 12 | 6.0 | 11.0 | 0.00 | 0.02 | 0.02 | 85 | 1017.2 |
| 20260506151509 | 46 | 46 | 4.0 | 11.0 | 0.00 | 0.02 | 0.02 | 85 | 1017.2 |
| 20260506151003 | 46 | 31 | 6.0 | 11.0 | 0.00 | 0.02 | 0.02 | 85 | 1017.1 |
| 20260506150507 | 45 | 30 | 5.0 | 13.0 | 0.00 | 0.02 | 0.02 | 86 | 1017.0 |
| 20260506150012 | 45 | 43 | 4.0 | 13.0 | 0.00 | 0.02 | 0.02 | 87 | 1016.9 |
| 20260506145506 | 45 | 52 | 4.0 | 10.0 | 0.00 | 0.02 | 0.02 | 88 | 1016.7 |
| 20260506145008 | 45 | 22 | 4.0 | 11.0 | 0.00 | 0.02 | 0.02 | 88 | 1016.8 |
| 20260506144513 | 44 | 59 | 5.0 | 13.0 | 0.00 | 0.02 | 0.02 | 88 | 1016.7 |
| 20260506144003 | 44 | 36 | 8.0 | 12.0 | 0.00 | 0.02 | 0.02 | 87 | 1016.7 |
| 20260506143503 | 44 | 38 | 6.0 | 13.0 | 0.00 | 0.02 | 0.02 | 89 | 1016.4 |
| 20260506143023 | 44 | 342 | 8.0 | 13.0 | 0.00 | 0.02 | 0.02 | 89 | 1016.2 |
| 20260506142506 | 44 | 19 | 6.0 | 13.0 | 0.00 | 0.02 | 0.02 | 89 | 1016.3 |
| 20260506142008 | 44 | 360 | 7.0 | 11.0 | 0.00 | 0.02 | 0.02 | 89 | 1016.6 |
| 20260506141516 | 44 | 9 | 5.0 | 11.0 | 0.00 | 0.02 | 0.02 | 89 | 1016.6 |
| 20260506141011 | 44 | 345 | 5.0 | 10.0 | 0.00 | 0.02 | 0.02 | 89 | 1016.8 |
| 20260506140503 | 43 | 343 | 5.0 | 10.0 | 0.00 | 0.02 | 0.02 | 90 | 1016.7 |
| 20260506140014 | 43 | 59 | 5.0 | 11.0 | 0.00 | 0.02 | 0.02 | 90 | 1016.4 |
| 20260506135507 | 43 | 32 | 5.0 | 11.0 | 0.00 | 0.02 | 0.02 | 90 | 1016.5 |
| 20260506135003 | 43 | 24 | 7.0 | 12.0 | 0.00 | 0.02 | 0.02 | 90 | 1016.5 |
| 20260506134515 | 43 | 46 | 4.0 | 13.0 | 0.00 | 0.02 | 0.02 | 90 | 1016.6 |
| 20260506134008 | 43 | 28 | 7.0 | 13.0 | 0.00 | 0.02 | 0.02 | 89 | 1016.6 |
| 20260506133506 | 42 | 31 | 5.0 | 9.0 | 0.00 | 0.03 | 0.02 | 91 | 1016.7 |
| 20260506133018 | 42 | 26 | 4.0 | 9.0 | 0.00 | 0.03 | 0.02 | 90 | 1016.6 |
| 20260506132511 | 42 | 13 | 3.0 | 10.0 | 0.00 | 0.03 | 0.02 | 91 | 1016.7 |
| 20260506132007 | 42 | 349 | 5.0 | 9.0 | 0.00 | 0.03 | 0.02 | 91 | 1016.4 |
| 20260506131528 | 42 | 23 | 4.0 | 11.0 | 0.00 | 0.03 | 0.02 | 91 | 1016.2 |
| 20260506131005 | 42 | 15 | 4.0 | 11.0 | 0.00 | 0.03 | 0.02 | 90 | 1016.4 |
| 20260506130506 | 42 | 42 | 5.0 | 11.0 | 0.00 | 0.03 | 0.02 | 91 | 1016.4 |
| 20260506130016 | 42 | 325 | 4.0 | 11.0 | 0.00 | 0.03 | 0.02 | 91 | 1016.4 |
| 20260506125506 | 42 | 49 | 7.0 | 11.0 | 0.00 | 0.03 | 0.02 | 92 | 1016.0 |
| 20260506125009 | 42 | 40 | 4.0 | 10.0 | 0.00 | 0.03 | 0.02 | 92 | 1016.0 |
| 20260506124516 | 41 | 21 | 3.0 | 12.0 | 0.00 | 0.03 | 0.02 | 92 | 1016.1 |
| 20260506124007 | 41 | 326 | 6.0 | 12.0 | 0.00 | 0.03 | 0.02 | 92 | 1016.2 |
| 20260506123507 | 41 | 334 | 5.0 | 12.0 | 0.00 | 0.03 | 0.02 | 92 | 1016.1 |
| 20260506123020 | 41 | 338 | 5.0 | 12.0 | 0.00 | 0.03 | 0.02 | 92 | 1016.0 |
| 20260506122507 | 41 | 350 | 4.0 | 12.0 | 0.00 | 0.03 | 0.02 | 92 | 1015.9 |
| 20260506122010 | 42 | 350 | 5.0 | 8.0 | 0.00 | 0.03 | 0.02 | 92 | 1015.8 |
| 20260506121520 | 42 | 9 | 3.0 | 8.0 | 0.00 | 0.03 | 0.02 | 91 | 1015.6 |
| 20260506121005 | 41 | 339 | 3.0 | 10.0 | 0.00 | 0.03 | 0.02 | 91 | 1015.5 |
| 20260506120507 | 41 | 15 | 6.0 | 10.0 | 0.00 | 0.03 | 0.02 | 91 | 1015.4 |
| 20260506120020 | 41 | 40 | 4.0 | 10.0 | 0.00 | 0.03 | 0.02 | 91 | 1015.2 |
| 20260506115516 | 41 | 23 | 5.0 | 10.0 | 0.00 | 0.03 | 0.02 | 91 | 1014.9 |
| 20260506115007 | 41 | 45 | 5.0 | 11.0 | 0.00 | 0.03 | 0.02 | 91 | 1014.9 |
| 20260506114521 | 41 | 21 | 5.0 | 11.0 | 0.00 | 0.03 | 0.02 | 91 | 1015.0 |
| 20260506114007 | 41 | 41 | 5.0 | 9.0 | 0.00 | 0.03 | 0.02 | 91 | 1014.9 |
| 20260506113506 | 41 | 333 | 4.0 | 9.0 | 0.00 | 0.03 | 0.02 | 91 | 1014.5 |
| 20260506113018 | 41 | 27 | 4.0 | 9.0 | 0.00 | 0.03 | 0.02 | 91 | 1014.5 |
| 20260506112505 | 41 | 44 | 5.0 | 9.0 | 0.00 | 0.03 | 0.02 | 91 | 1014.6 |
| 20260506112009 | 41 | 19 | 3.0 | 10.0 | 0.00 | 0.03 | 0.02 | 91 | 1014.5 |
| 20260506111504 | 41 | 29 | 6.0 | 11.0 | 0.00 | 0.03 | 0.02 | 91 | 1014.3 |
| 20260506111004 | 41 | 24 | 7.0 | 11.0 | 0.00 | 0.03 | 0.02 | 92 | 1014.2 |
| 20260506110504 | 41 | 26 | 4.0 | 9.0 | 0.00 | 0.03 | 0.02 | 92 | 1014.2 |
| 20260506110006 | 41 | 30 | 4.0 | 9.0 | 0.00 | 0.03 | 0.02 | 92 | 1014.1 |
| 20260506105504 | 41 | 34 | 5.0 | 10.0 | 0.00 | 0.03 | 0.02 | 92 | 1013.8 |
| 20260506105010 | 41 | 45 | 4.0 | 10.0 | 0.00 | 0.03 | 0.02 | 92 | 1013.6 |
| 20260506104510 | 41 | 44 | 7.0 | 10.0 | 0.00 | 0.03 | 0.02 | 92 | 1013.7 |
| 20260506104002 | 41 | 46 | 5.0 | 10.0 | 0.00 | 0.03 | 0.02 | 92 | 1013.7 |
| 20260506103504 | 41 | 48 | 4.0 | 11.0 | 0.00 | 0.03 | 0.02 | 92 | 1013.5 |
| 20260506103016 | 41 | 49 | 5.0 | 11.0 | 0.00 | 0.03 | 0.02 | 92 | 1013.5 |
| 20260506102507 | 41 | 28 | 4.0 | 8.0 | 0.00 | 0.03 | 0.02 | 92 | 1013.7 |
| 20260506102006 | 41 | 50 | 5.0 | 11.0 | 0.00 | 0.03 | 0.02 | 92 | 1013.5 |
| 20260506101533 | 41 | 63 | 6.0 | 11.0 | 0.00 | 0.03 | 0.02 | 92 | 1013.2 |
| 20260506101007 | 41 | 18 | 5.0 | 10.0 | 0.00 | 0.03 | 0.02 | 91 | 1013.1 |
| 20260506100509 | 41 | 30 | 5.0 | 11.0 | 0.00 | 0.04 | 0.02 | 91 | 1013.0 |
| 20260506100004 | 41 | 19 | 4.0 | 11.0 | 0.00 | 0.07 | 0.02 | 91 | 1013.1 |
| 20260506095506 | 41 | 32 | 5.0 | 11.0 | 0.00 | 0.12 | 0.02 | 91 | 1013.2 |
| 20260506095004 | 41 | 60 | 6.0 | 10.0 | 0.00 | 0.12 | 0.02 | 92 | 1013.1 |